Weather reports worldwide

Advertisment
Berlin/Tegel, Germany (10382): temperature & dewpoint: 10.08.2018 13:00:00 - 16.08.2018 13:00:00 (CEST)Berlin/Tegel, Germany (10382): temperature 5cm & temperature -5cm: 10.08.2018 13:00:00 - 16.08.2018 13:00:00 (CEST)Berlin/Tegel, Germany (10382): temperature -20cm & temperature -100cm: 10.08.2018 13:00:00 - 16.08.2018 13:00:00 (CEST)Berlin/Tegel, Germany (10382): wind speed & gusts: 10.08.2018 13:00:00 - 16.08.2018 13:00:00 (CEST)Berlin/Tegel, Germany (10382): wind direction: 10.08.2018 13:00:00 - 16.08.2018 13:00:00 (CEST)Berlin/Tegel, Germany (10382): reduced air pressure: 10.08.2018 13:00:00 - 16.08.2018 13:00:00 (CEST)Berlin/Tegel, Germany (10382): visibility: 10.08.2018 13:00:00 - 16.08.2018 13:00:00 (CEST)Berlin/Tegel, Germany (10382): sunshine duration: 10.08.2018 13:00:00 - 16.08.2018 13:00:00 (CEST)Berlin/Tegel, Germany (10382): precipitation: 10.08.2018 13:00:00 - 16.08.2018 13:00:00 (CEST)
Date & Time tt [°C] td [°C] tt 5cm [°C] tt -5cm [°C] tt -20cm [°C] tt -100cm [°C] ff [km/h] ff [kn] fx [km/h] fx [kn] dd ppp [hPa] vv [km] sd [min] rr [mm]
16.08.2018 13:00:00 26,7 11,2 32,2 31,1 23,4 22,4 14 8 26 14 SE 1017,5 50 60 0,0
16.08.2018 12:00:00 25,5 11,3 31,4 28,9 23,0 22,4 9 5 22 12 SSE 1018,2 10 60 0,0
16.08.2018 11:00:00 24,5 12,6 30,2 26,4 22,7 22,4 11 6 21 11 - 1018,6 10 60 0,0
16.08.2018 10:00:00 23,1 13,0 26,3 23,9 22,6 22,4 13 7 21 11 SE 1018,9 45 60 0,0
16.08.2018 09:00:00 21,5 13,2 24,6 21,6 22,6 22,4 5 3 9 5 S 1019,0 10 60 0,0
16.08.2018 08:00:00 19,6 13,4 21,2 19,7 22,8 22,4 4 2 8 4 SE 1019,3 40 60 0,0
16.08.2018 07:00:00 16,5 13,1 14,7 19,0 23,1 22,4 3 2 4 2 E 1019,4 40 18 0,0
16.08.2018 06:00:00 14,5 13,1 11,2 19,2 23,3 22,4 0 0 2 1 N 1019,3 40 0 0,0
16.08.2018 05:00:00 14,5 13,0 9,7 19,6 23,6 22,4 0 0 2 1 N 1019,5 10 0 0,0
16.08.2018 04:00:00 15,2 13,2 12,8 20,0 23,9 22,4 2 1 5 3 - 1019,4 10 0 0,0
16.08.2018 03:00:00 15,3 13,0 12,1 20,4 24,2 22,4 4 2 4 2 - 1019,6 10 0 0,0
16.08.2018 02:00:00 15,6 13,2 12,4 20,9 24,5 22,4 4 2 4 2 W 1019,7 10 0 0,0
16.08.2018 01:00:00 16,3 13,2 12,7 21,5 24,8 22,4 2 1 4 2 - 1019,5 10 0 0,0
16.08.2018 00:00:00 16,4 12,5 12,6 22,2 25,1 22,5 3 1 4 2 S 1019,5 50 0 0,0
15.08.2018 23:00:00 18,4 13,6 13,3 23,1 25,4 22,5 0 0 2 1 N 1019,4 10 0 0,0
15.08.2018 22:00:00 19,0 13,4 13,3 24,2 25,6 22,5 2 1 8 4 WNW 1019,2 50 0 0,0
15.08.2018 21:00:00 20,7 12,8 17,1 25,7 25,7 22,5 5 3 15 8 WNW 1018,9 10 0 0,0
15.08.2018 20:00:00 22,3 13,0 21,4 27,1 25,7 22,5 11 6 16 9 WNW 1018,4 50 31 0,0
15.08.2018 19:00:00 22,7 13,1 23,8 27,9 25,7 22,5 8 4 15 8 NW 1018,3 10 0 0,0
15.08.2018 18:00:00 23,2 12,5 26,4 28,5 25,6 22,5 8 4 21 11 W 1018,4 50 6 0,0
15.08.2018 17:00:00 22,8 12,9 25,5 29,3 25,4 22,5 11 6 28 15 WNW 1018,3 10 0 0,0
15.08.2018 16:00:00 23,4 11,7 25,1 30,7 25,1 22,5 18 10 28 15 WNW 1018,2 50 21 0,0
15.08.2018 15:00:00 23,0 12,3 26,9 30,2 24,8 22,6 13 7 29 16 WNW 1018,3 10 15 0,0
15.08.2018 14:00:00 23,8 12,7 30,6 29,3 24,4 22,6 16 9 26 14 WNW 1018,2 10 22 0,0
15.08.2018 13:00:00 21,5 12,4 24,8 29,1 24,1 22,6 15 8 28 15 WNW 1018,4 50 16 0,0
15.08.2018 12:00:00 21,9 12,8 28,1 28,4 23,8 22,6 16 9 31 17 W 1018,3 10 40 0,0
15.08.2018 11:00:00 20,0 12,2 24,8 26,4 23,6 22,6 18 10 34 18 W 1018,5 50 53 0,0
15.08.2018 10:00:00 19,4 12,0 25,0 24,2 23,5 22,6 15 8 31 17 NW 1017,8 50 38 0,0
15.08.2018 09:00:00 17,9 13,2 22,1 22,3 23,6 22,6 17 9 26 14 W 1017,4 40 24 0,0
15.08.2018 08:00:00 17,0 13,5 17,7 21,8 23,8 22,6 16 9 24 13 W 1017,0 40 0 0,0
15.08.2018 07:00:00 16,9 13,6 17,2 21,8 23,9 22,6 17 9 26 14 W 1016,5 35 0 0,0
15.08.2018 06:00:00 17,4 13,8 17,2 21,9 24,1 22,6 18 10 31 17 W 1015,7 10 0 0,0
15.08.2018 05:00:00 17,6 14,0 17,2 22,1 24,3 22,6 16 9 28 15 W 1015,3 40 0 0,0
15.08.2018 04:00:00 17,7 14,5 17,4 22,4 24,4 22,6 15 8 35 19 W 1015,1 40 0 0,0
15.08.2018 03:00:00 18,1 14,7 18,1 22,5 24,6 22,6 18 10 38 21 W 1014,6 40 0 0,0
15.08.2018 02:00:00 18,3 15,2 17,8 22,7 24,8 22,6 18 10 29 16 W 1014,3 40 0 0,0
15.08.2018 01:00:00 18,4 15,2 17,6 23,2 25,0 22,7 16 9 28 15 W 1014,2 10 0 0,0
15.08.2018 00:00:00 19,0 15,6 18,7 23,9 25,2 22,7 16 9 31 17 W 1013,9 40 0 0,0
14.08.2018 23:00:00 19,3 15,7 19,3 24,3 25,4 22,7 21 11 37 20 W 1013,3 10 0 0,0
14.08.2018 22:00:00 19,6 16,2 19,6 24,8 25,5 22,7 21 11 40 22 W 1012,7 10 0 0,0
14.08.2018 21:00:00 20,3 16,0 19,8 25,6 25,6 22,7 26 14 40 21 W 1012,1 10 0 0,0
14.08.2018 20:00:00 21,3 15,7 21,1 26,6 25,7 22,7 22 12 34 18 W 1011,1 10 30 0,0
14.08.2018 19:00:00 21,5 15,6 22,4 27,6 25,6 22,7 24 13 42 23 WSW 1010,9 10 18 0,0
14.08.2018 18:00:00 23,2 13,7 24,6 28,6 25,4 22,7 21 11 39 21 W 1010,5 10 42 0,0
14.08.2018 17:00:00 23,1 13,3 24,2 28,2 25,3 22,7 18 10 35 19 WSW 1010,4 10 0 0,0
14.08.2018 16:00:00 22,5 13,0 25,8 28,0 25,1 22,7 16 9 49 26 WSW 1010,3 45 15 0,0
14.08.2018 15:00:00 22,7 12,9 23,8 28,3 24,9 22,7 29 16 40 21 WSW 1010,6 10 0 0,0
14.08.2018 14:00:00 23,2 12,4 25,4 28,3 24,6 22,7 26 14 42 23 SW 1010,0 10 11 0,0
14.08.2018 13:00:00 22,3 12,2 23,7 28,4 24,4 22,7 25 13 46 25 WSW 1009,9 40 20 0,0
14.08.2018 12:00:00 22,7 12,2 27,8 27,0 24,2 22,7 29 16 40 22 WSW 1010,0 40 41 0,0
14.08.2018 11:00:00 21,3 13,3 26,8 25,0 24,0 22,7 22 12 35 19 WSW 1009,9 40 8 0,0
14.08.2018 10:00:00 19,8 13,0 22,4 24,6 24,0 22,7 21 12 40 21 W 1009,8 40 37 0,0
14.08.2018 09:00:00 19,9 13,7 22,7 22,9 24,1 22,7 26 14 37 20 WSW 1009,3 10 59 0,0
14.08.2018 08:00:00 18,2 13,5 19,6 21,5 24,3 22,7 21 11 27 15 WSW 1009,1 35 58 0,0
14.08.2018 07:00:00 17,1 13,6 16,5 21,2 24,6 22,7 11 6 18 10 WSW 1008,8 10 9 0,0
14.08.2018 06:00:00 16,4 13,4 15,0 21,5 24,8 22,7 15 8 22 12 W 1008,3 40 0 0,0
14.08.2018 05:00:00 16,9 13,5 15,1 22,0 25,1 22,8 15 8 22 12 W 1007,9 45 0 0,0
14.08.2018 04:00:00 17,6 13,6 16,0 22,5 25,4 22,8 15 8 25 14 WSW 1007,6 10 0 0,0
14.08.2018 03:00:00 19,3 14,2 17,9 23,0 25,6 22,8 18 10 29 16 WSW 1007,4 10 0 0,0
14.08.2018 02:00:00 19,4 14,9 17,7 23,5 25,9 22,8 11 6 15 8 SSW 1007,1 10 0 0,0
14.08.2018 01:00:00 20,1 15,0 18,3 24,1 26,2 22,8 10 6 18 10 SSW 1007,2 50 0 0,0
14.08.2018 00:00:00 20,3 15,1 18,5 24,8 26,4 22,8 11 6 18 10 SSW 1007,2 10 0 0,0
13.08.2018 23:00:00 21,3 14,9 19,8 25,6 26,7 22,8 11 6 22 12 S 1007,3 10 0 0,0
13.08.2018 22:00:00 22,3 14,3 21,6 26,4 26,9 22,8 14 7 22 12 SSW 1007,1 50 0 0,0
13.08.2018 21:00:00 23,0 13,5 22,3 27,2 27,1 22,8 15 8 23 12 SSW 1006,9 10 2 0,0
13.08.2018 20:00:00 23,5 13,0 22,9 28,1 27,2 22,9 8 4 18 10 ESE 1006,4 10 2 0,0
13.08.2018 19:00:00 23,8 12,5 23,6 29,3 27,3 22,9 19 10 41 22 W 1007,1 45 0 0,0
13.08.2018 18:00:00 26,0 10,6 25,9 31,3 27,2 22,9 23 13 41 22 W 1007,0 40 0 0,0
13.08.2018 17:00:00 28,7 8,4 29,6 32,9 26,9 22,9 29 16 41 22 W 1006,5 50 0 0,0
13.08.2018 16:00:00 30,6 4,7 32,5 34,7 26,3 22,9 11 6 29 16 SW 1005,9 50 16 0,0
13.08.2018 15:00:00 31,1 4,8 38,2 34,8 25,6 22,9 19 11 34 18 SSW 1006,2 50 58 0,0
13.08.2018 14:00:00 30,2 5,8 35,8 33,9 24,9 22,9 13 7 26 14 - 1006,7 10 58 0,0
13.08.2018 13:00:00 29,9 5,9 35,0 32,3 24,3 22,9 15 8 23 12 S 1007,1 10 60 0,0
13.08.2018 12:00:00 29,0 5,9 34,7 29,8 23,8 23,0 11 6 25 13 SSE 1007,6 45 59 0,0
13.08.2018 11:00:00 27,0 6,9 32,4 27,6 23,4 23,0 5 3 15 8 SSE 1008,0 10 60 0,0
13.08.2018 10:00:00 24,9 8,5 29,0 24,7 23,3 23,0 5 3 9 5 - 1008,0 10 60 0,0
13.08.2018 09:00:00 22,3 8,5 26,6 22,2 23,4 23,0 5 3 11 6 SE 1008,6 10 60 0,0
13.08.2018 08:00:00 19,9 7,9 21,7 20,3 23,6 23,0 5 3 11 6 SE 1008,9 10 60 0,0
13.08.2018 07:00:00 17,0 8,6 14,9 19,6 23,9 23,0 4 2 4 2 - 1008,8 10 27 0,0
13.08.2018 06:00:00 15,0 8,6 9,9 20,0 24,2 23,0 4 2 5 3 ENE 1008,9 40 0 0,0
13.08.2018 05:00:00 14,2 8,4 9,3 20,5 24,5 23,0 2 1 5 3 ENE 1009,5 10 0 0,0
13.08.2018 04:00:00 15,2 8,5 11,6 21,2 24,9 23,0 2 1 5 3 - 1009,9 10 0 0,0
13.08.2018 03:00:00 15,4 8,2 11,8 21,6 25,2 23,0 3 2 5 3 ENE 1010,4 50 0 0,0
13.08.2018 02:00:00 16,4 7,9 12,3 22,3 25,5 23,1 4 2 5 3 ENE 1010,8 10 0 0,0
13.08.2018 01:00:00 18,7 7,5 12,9 23,1 25,8 23,1 5 3 10 6 ENE 1011,1 50 0 0,0
13.08.2018 00:00:00 20,1 7,4 16,4 24,0 26,1 23,1 5 3 9 5 ENE 1011,6 50 0 0,0
12.08.2018 23:00:00 21,3 7,0 18,4 24,8 26,4 23,1 4 2 9 5 - 1011,9 10 0 0,0
12.08.2018 22:00:00 22,0 7,2 19,3 26,0 26,7 23,2 5 3 9 5 NE 1012,2 10 0 0,0
12.08.2018 21:00:00 23,1 6,9 18,9 27,4 26,8 23,2 5 3 9 5 N 1012,5 50 0 0,0
12.08.2018 20:00:00 24,9 5,2 22,5 29,1 26,8 23,2 6 3 16 9 NNW 1012,6 50 35 0,0
12.08.2018 19:00:00 26,2 3,4 25,7 30,7 26,6 23,2 10 5 26 14 SSW 1013,0 50 60 0,0
12.08.2018 18:00:00 26,3 3,4 28,7 32,1 26,2 23,2 16 9 28 15 SSW 1013,5 50 60 0,0
12.08.2018 17:00:00 27,0 4,2 30,5 32,7 25,8 23,3 16 9 35 19 SW 1014,2 50 60 0,0
12.08.2018 16:00:00 25,8 4,5 31,2 32,5 25,2 23,3 16 9 48 26 SW 1015,2 50 60 0,0
12.08.2018 15:00:00 25,5 4,9 31,8 31,7 24,6 23,3 13 7 35 19 SW 1015,9 50 60 0,0
12.08.2018 14:00:00 24,3 4,8 31,9 30,4 24,0 23,3 18 10 36 20 W 1016,7 10 55 0,0
12.08.2018 13:00:00 22,9 6,3 29,8 29,5 23,5 23,3 14 7 36 19 WSW 1017,4 50 59 0,0
12.08.2018 12:00:00 21,8 6,4 28,8 27,4 23,0 23,4 14 8 37 20 S 1018,3 50 60 0,0
12.08.2018 11:00:00 21,4 8,3 27,3 25,2 22,7 23,4 18 10 27 15 S 1018,7 50 60 0,0
12.08.2018 10:00:00 19,7 9,0 24,7 22,9 22,5 23,4 14 8 20 11 S 1019,0 50 60 0,0
12.08.2018 09:00:00 17,5 9,2 21,4 20,7 22,6 23,4 10 5 15 8 SSW 1019,4 50 60 0,0
12.08.2018 08:00:00 15,6 9,3 18,5 18,9 22,8 23,4 8 4 11 6 SSW 1019,8 50 60 0,0
12.08.2018 07:00:00 13,4 9,0 12,4 18,3 23,1 23,4 8 4 15 8 SSW 1020,2 45 28 0,0
12.08.2018 06:00:00 11,8 9,3 8,0 18,4 23,5 23,4 3 2 7 4 S 1020,2 45 0 0,0
12.08.2018 05:00:00 11,4 8,6 6,8 18,8 23,8 23,5 3 2 8 4 SSW 1020,1 50 0 0,0
12.08.2018 04:00:00 12,1 8,6 6,8 19,4 24,2 23,5 5 3 9 5 W 1020,3 10 0 0,0
12.08.2018 03:00:00 13,0 8,5 8,5 20,0 24,5 23,5 9 5 13 7 W 1020,5 50 0 0,0
12.08.2018 02:00:00 13,8 8,3 9,5 20,7 24,9 23,5 9 5 16 9 W 1020,4 10 0 0,0
12.08.2018 01:00:00 13,8 7,8 11,1 21,4 25,2 23,5 11 6 18 10 W 1020,6 10 0 0,0
12.08.2018 00:00:00 14,5 7,6 12,1 22,2 25,6 23,6 14 8 22 12 W 1020,6 50 0 0,0
11.08.2018 23:00:00 16,2 7,7 13,6 23,1 25,9 23,6 13 7 28 15 W 1020,7 10 0 0,0
11.08.2018 22:00:00 17,6 7,7 15,4 24,2 26,1 23,6 16 9 30 16 W 1020,4 10 0 0,0
11.08.2018 21:00:00 18,2 7,9 16,8 25,3 26,3 23,6 18 10 29 16 W 1020,2 50 0 0,0
11.08.2018 20:00:00 19,7 7,6 19,1 26,7 26,4 23,6 21 11 41 22 WNW 1019,6 50 44 0,0
11.08.2018 19:00:00 21,5 5,8 22,0 28,1 26,3 23,7 24 13 51 27 W 1018,9 55 49 0,0
11.08.2018 18:00:00 22,3 4,4 24,5 29,1 26,1 23,7 31 17 63 34 W 1018,6 10 51 0,0
11.08.2018 17:00:00 22,7 4,8 26,0 29,6 25,8 23,7 28 15 56 30 W 1018,8 60 43 0,0
11.08.2018 16:00:00 22,6 5,2 27,4 29,9 25,4 23,7 29 16 53 29 W 1018,9 60 45 0,0
11.08.2018 15:00:00 22,9 6,2 29,1 29,1 25,1 23,7 33 18 53 29 W 1019,0 55 49 0,0
11.08.2018 14:00:00 21,8 6,7 26,6 27,7 24,8 23,7 37 20 53 29 WSW 1019,5 10 45 0,0
11.08.2018 13:00:00 20,0 8,5 23,0 26,1 24,6 23,8 32 17 42 23 W 1019,6 50 1 0,0
11.08.2018 12:00:00 20,2 8,4 24,3 25,6 24,4 23,8 20 11 34 18 W 1019,7 50 6 0,0
11.08.2018 11:00:00 20,5 7,8 23,3 24,9 24,3 23,8 22 12 41 22 W 1019,4 10 1 0,0
11.08.2018 10:00:00 21,1 7,0 24,3 23,8 24,2 23,8 24 13 37 20 WSW 1019,0 45 28 0,0
11.08.2018 09:00:00 19,8 8,4 23,2 22,2 24,3 23,8 15 8 21 11 SW 1019,0 10 9 0,0
11.08.2018 08:00:00 17,6 7,9 17,7 21,4 24,5 23,8 13 7 22 12 SSW 1019,0 10 15 0,0
11.08.2018 07:00:00 17,6 7,3 16,4 21,1 24,7 23,8 11 6 26 14 S 1018,9 10 9 0,0
11.08.2018 06:00:00 17,7 7,7 15,0 21,4 25,0 23,8 11 6 15 8 S 1019,3 40 0 0,0
11.08.2018 05:00:00 17,6 9,2 15,8 21,5 25,3 23,8 9 5 16 9 SSE 1019,6 10 0 0,0
11.08.2018 04:00:00 18,1 9,5 16,3 21,9 25,5 23,8 13 7 18 10 SSE 1020,2 10 0 0,0
11.08.2018 03:00:00 18,8 8,5 17,2 22,1 25,8 23,8 11 6 22 12 SSE 1020,7 50 0 0,0
11.08.2018 02:00:00 18,0 8,5 16,3 22,1 26,2 23,9 8 5 13 7 SE 1021,2 50 0 0,0
11.08.2018 01:00:00 16,0 8,2 12,8 22,5 26,6 23,9 8 4 8 4 SE 1021,5 10 0 0,0
11.08.2018 00:00:00 16,9 8,6 13,0 23,3 27,0 23,9 4 2 11 6 ESE 1021,7 50 0 0,0
10.08.2018 23:00:00 17,6 7,6 14,9 24,2 27,3 23,9 6 3 9 5 ESE 1021,8 50 0 0,0
10.08.2018 22:00:00 19,2 7,2 15,6 25,3 27,6 23,9 5 3 8 4 SE 1021,8 50 0 0,0
10.08.2018 21:00:00 20,9 7,1 15,1 26,8 27,8 23,9 4 2 9 5 NNW 1021,7 50 9 0,0
10.08.2018 20:00:00 22,1 7,0 20,6 28,2 27,9 23,9 8 4 26 14 WNW 1021,4 10 60 0,0
10.08.2018 19:00:00 22,9 6,9 24,1 29,6 27,8 23,9 11 6 24 13 WNW 1021,3 10 55 0,0
10.08.2018 18:00:00 23,6 7,5 26,8 30,6 27,7 23,9 11 6 29 16 WNW 1021,5 10 36 0,0
10.08.2018 17:00:00 23,4 8,4 27,1 31,5 27,3 23,9 12 6 34 18 W 1021,8 50 28 0,0
10.08.2018 16:00:00 22,7 8,9 30,1 31,9 26,9 23,9 17 9 32 17 WNW 1022,0 50 49 0,0
10.08.2018 15:00:00 22,3 9,4 29,2 30,7 26,6 23,9 16 9 34 18 WNW 1021,7 10 43 0,0
10.08.2018 14:00:00 22,3 10,1 28,6 28,3 26,4 23,9 22 12 40 22 W 1021,3 10 28 0,0
10.08.2018 13:00:00 21,3 10,3 26,3 26,7 26,3 23,9 25 13 44 24 W 1021,1 60 22 0,0

tt = temperature
td = dewpoint
tt 5cm = temperature 5cm
tt -5cm = temperature -5cm
tt -20cm = temperature -20cm
tt -100cm = temperature -100cm
ff = wind speed
fx = gusts
dd = wind direction
ppp = reduced air pressure
vv = visibility
sd = sunshine duration
rr = precipitation

Next stations